Location: Newark
(55.7083°N, 13.1992°E)
Time: 11:10:02
(UTC+00:00)

Transit 4A - Pass Details

Date: 22 February 2020
Orbit: 871 x 973 km, 66.8° (Epoch: 06 April)

Event Time Altitude Azimuth Distance (km) Brightness Sun altitude
Exits shadow 01:46:25 33° 16° (NNE) 1,438 9.2 -36.6°
Drops below altitude 10° 01:49:59 10° 42° (NE) 2,531 10.9 -36.2°
Sets 01:52:35 0° 49° (NE) 3,474 11.9 -35.9°
